| time (UTC) | temp F | wind direction | speed MPH | gust MPH | rain 1hr in | rain 24hr in | rain mn in | humidity % | barometer mb |
| 20260507133035 | 67 | 90 | 15.0 | 21.0 | 0.00 | 0.00 | 0.00 | 67 | 1011.2 |
| 20260507132515 | 67 | 90 | 14.0 | 20.0 | 0.00 | 0.00 | 0.00 | 65 | 1011.2 |
| 20260507132036 | 67 | 90 | 12.0 | 18.0 | 0.00 | 0.00 | 0.00 | 64 | 1011.3 |
| 20260507131515 | 67 | 68 | 14.0 | 19.0 | 0.00 | 0.00 | 0.00 | 64 | 1011.3 |
| 20260507131015 | 67 | 90 | 12.0 | 20.0 | 0.00 | 0.00 | 0.00 | 63 | 1011.4 |
| 20260507130515 | 68 | 68 | 16.0 | 21.0 | 0.00 | 0.00 | 0.00 | 64 | 1011.4 |
| 20260507130015 | 68 | 90 | 14.0 | 20.0 | 0.00 | 0.00 | 0.00 | 63 | 1011.5 |
| 20260507125515 | 68 | 68 | 18.0 | 24.0 | 0.00 | 0.00 | 0.00 | 64 | 1011.6 |
| 20260507125015 | 68 | 90 | 16.0 | 20.0 | 0.00 | 0.00 | 0.00 | 63 | 1011.6 |
| 20260507124515 | 68 | 68 | 16.0 | 23.0 | 0.00 | 0.00 | 0.00 | 63 | 1011.7 |
| 20260507124015 | 68 | 68 | 14.0 | 21.0 | 0.00 | 0.00 | 0.00 | 63 | 1011.6 |
| 20260507123535 | 68 | 68 | 14.0 | 21.0 | 0.00 | 0.00 | 0.00 | 62 | 1011.6 |
| 20260507123035 | 68 | 68 | 13.0 | 20.0 | 0.00 | 0.00 | 0.00 | 63 | 1011.7 |
| 20260507122535 | 68 | 68 | 14.0 | 20.0 | 0.00 | 0.00 | 0.00 | 63 | 1011.8 |
| 20260507122015 | 68 | 90 | 13.0 | 20.0 | 0.00 | 0.00 | 0.00 | 63 | 1011.9 |
| 20260507121515 | 68 | 90 | 17.0 | 22.0 | 0.00 | 0.00 | 0.00 | 65 | 1011.9 |
| 20260507121015 | 68 | 90 | 16.0 | 22.0 | 0.00 | 0.00 | 0.00 | 65 | 1011.9 |
| 20260507120515 | 68 | 90 | 14.0 | 23.0 | 0.00 | 0.00 | 0.00 | 64 | 1012.0 |
| 20260507120015 | 68 | 90 | 12.0 | 17.0 | 0.00 | 0.00 | 0.00 | 64 | 1011.9 |
| 20260507115515 | 68 | 68 | 14.0 | 21.0 | 0.00 | 0.00 | 0.00 | 63 | 1011.9 |
| 20260507115015 | 68 | 90 | 14.0 | 21.0 | 0.00 | 0.00 | 0.00 | 63 | 1011.9 |
| 20260507114515 | 68 | 68 | 15.0 | 21.0 | 0.00 | 0.00 | 0.00 | 61 | 1011.9 |
| 20260507114035 | 68 | 68 | 14.0 | 21.0 | 0.00 | 0.00 | 0.00 | 62 | 1012.0 |
| 20260507113517 | 68 | 68 | 11.0 | 18.0 | 0.00 | 0.00 | 0.00 | 63 | 1012.0 |
| 20260507113017 | 68 | 68 | 11.0 | 19.0 | 0.00 | 0.00 | 0.00 | 64 | 1012.1 |
| 20260507112517 | 68 | 68 | 12.0 | 21.0 | 0.00 | 0.00 | 0.00 | 66 | 1012.2 |
| 20260507112017 | 68 | 45 | 11.0 | 19.0 | 0.00 | 0.00 | 0.00 | 65 | 1012.4 |
| 20260507111515 | 68 | 90 | 12.0 | 20.0 | 0.00 | 0.00 | 0.00 | 65 | 1012.4 |
| 20260507111037 | 67 | 68 | 11.0 | 20.0 | 0.00 | 0.00 | 0.00 | 64 | 1012.5 |
| 20260507110517 | 68 | 45 | 12.0 | 21.0 | 0.00 | 0.00 | 0.00 | 64 | 1012.5 |
| 20260507110057 | 68 | 68 | 14.0 | 22.0 | 0.00 | 0.00 | 0.00 | 64 | 1012.5 |
| 20260507105517 | 67 | 68 | 13.0 | 20.0 | 0.00 | 0.00 | 0.00 | 65 | 1012.5 |
| 20260507105017 | 67 | 68 | 14.0 | 22.0 | 0.00 | 0.00 | 0.00 | 66 | 1012.6 |
| 20260507104517 | 67 | 68 | 10.0 | 19.0 | 0.00 | 0.00 | 0.00 | 66 | 1012.6 |
| 20260507104017 | 67 | 68 | 14.0 | 22.0 | 0.00 | 0.00 | 0.00 | 67 | 1012.5 |
| 20260507103517 | 67 | 68 | 16.0 | 23.0 | 0.00 | 0.00 | 0.00 | 67 | 1012.7 |
| 20260507103017 | 67 | 68 | 12.0 | 21.0 | 0.00 | 0.00 | 0.00 | 67 | 1012.7 |
| 20260507102517 | 67 | 68 | 12.0 | 19.0 | 0.00 | 0.00 | 0.00 | 68 | 1012.7 |
| 20260507102017 | 67 | 68 | 12.0 | 21.0 | 0.00 | 0.00 | 0.00 | 69 | 1012.7 |
| 20260507101517 | 67 | 68 | 12.0 | 21.0 | 0.00 | 0.00 | 0.00 | 68 | 1012.6 |
| 20260507101017 | 67 | 68 | 12.0 | 20.0 | 0.00 | 0.00 | 0.00 | 68 | 1012.6 |
| 20260507100517 | 67 | 68 | 10.0 | 23.0 | 0.00 | 0.00 | 0.00 | 69 | 1012.6 |
| 20260507100017 | 67 | 68 | 13.0 | 23.0 | 0.00 | 0.00 | 0.00 | 68 | 1012.7 |
| 20260507095517 | 66 | 68 | 13.0 | 21.0 | 0.00 | 0.00 | 0.00 | 69 | 1012.7 |
| 20260507095017 | 67 | 68 | 13.0 | 21.0 | 0.00 | 0.00 | 0.00 | 69 | 1012.7 |
| 20260507094517 | 66 | 68 | 12.0 | 21.0 | 0.00 | 0.00 | 0.00 | 70 | 1012.8 |
| 20260507094017 | 66 | 68 | 10.0 | 20.0 | 0.00 | 0.00 | 0.00 | 70 | 1012.8 |
| 20260507093537 | 67 | 68 | 10.0 | 17.0 | 0.00 | 0.00 | 0.00 | 70 | 1012.9 |
| 20260507093037 | 67 | 68 | 9.0 | 20.0 | 0.00 | 0.00 | 0.00 | 70 | 1012.9 |
| 20260507092517 | 66 | 45 | 11.0 | 19.0 | 0.00 | 0.00 | 0.00 | 70 | 1012.9 |
| 20260507092017 | 67 | 90 | 9.0 | 16.0 | 0.00 | 0.00 | 0.00 | 69 | 1012.9 |
| 20260507091517 | 67 | 68 | 10.0 | 16.0 | 0.00 | 0.00 | 0.00 | 69 | 1013.1 |
| 20260507091017 | 66 | 68 | 8.0 | 14.0 | 0.00 | 0.00 | 0.00 | 69 | 1012.9 |
| 20260507090517 | 66 | 68 | 11.0 | 18.0 | 0.00 | 0.00 | 0.00 | 69 | 1012.8 |
| 20260507090017 | 66 | 68 | 10.0 | 18.0 | 0.00 | 0.00 | 0.00 | 69 | 1012.9 |
| 20260507085537 | 66 | 68 | 8.0 | 21.0 | 0.00 | 0.00 | 0.00 | 70 | 1012.9 |
| 20260507085017 | 66 | 68 | 9.0 | 21.0 | 0.00 | 0.00 | 0.00 | 69 | 1012.9 |
| 20260507084517 | 66 | 68 | 10.0 | 17.0 | 0.00 | 0.00 | 0.00 | 69 | 1012.9 |
| 20260507084017 | 66 | 68 | 11.0 | 20.0 | 0.00 | 0.00 | 0.00 | 70 | 1012.9 |
| 20260507083537 | 66 | 68 | 12.0 | 20.0 | 0.00 | 0.00 | 0.00 | 69 | 1012.9 |
| 20260507083017 | 66 | 68 | 12.0 | 19.0 | 0.00 | 0.00 | 0.00 | 69 | 1012.8 |
| 20260507082517 | 66 | 68 | 10.0 | 18.0 | 0.00 | 0.00 | 0.00 | 70 | 1012.8 |
| 20260507082017 | 66 | 90 | 5.0 | 9.0 | 0.00 | 0.00 | 0.00 | 70 | 1012.8 |
| 20260507081517 | 66 | 68 | 9.0 | 17.0 | 0.00 | 0.00 | 0.00 | 69 | 1012.9 |
| 20260507081017 | 66 | 68 | 12.0 | 19.0 | 0.00 | 0.00 | 0.00 | 68 | 1012.9 |
| 20260507080517 | 66 | 68 | 10.0 | 18.0 | 0.00 | 0.00 | 0.00 | 68 | 1012.9 |
| 20260507080017 | 66 | 45 | 7.0 | 13.0 | 0.00 | 0.00 | 0.00 | 67 | 1012.8 |
| 20260507075517 | 66 | 45 | 6.0 | 11.0 | 0.00 | 0.00 | 0.00 | 67 | 1012.8 |
| 20260507075017 | 66 | 68 | 5.0 | 14.0 | 0.00 | 0.00 | 0.00 | 68 | 1012.7 |
| 20260507074517 | 66 | 68 | 8.0 | 18.0 | 0.00 | 0.00 | 0.00 | 68 | 1012.6 |
| 20260507074017 | 66 | 45 | 9.0 | 15.0 | 0.00 | 0.00 | 0.00 | 68 | 1012.4 |
| 20260507073517 | 65 | 68 | 5.0 | 10.0 | 0.00 | 0.00 | 0.00 | 68 | 1012.4 |
| 20260507073017 | 65 | 45 | 8.0 | 18.0 | 0.00 | 0.00 | 0.00 | 68 | 1012.4 |
| 20260507072517 | 65 | 23 | 9.0 | 15.0 | 0.00 | 0.00 | 0.00 | 67 | 1012.3 |
| 20260507072017 | 65 | 45 | 6.0 | 15.0 | 0.00 | 0.00 | 0.00 | 67 | 1012.3 |
| 20260507071537 | 65 | 45 | 2.0 | 13.0 | 0.00 | 0.00 | 0.00 | 68 | 1012.3 |
| 20260507071017 | 65 | 23 | 5.0 | 13.0 | 0.00 | 0.00 | 0.00 | 67 | 1012.3 |
| 20260507070537 | 65 | 23 | 7.0 | 14.0 | 0.00 | 0.00 | 0.00 | 68 | 1012.2 |
| 20260507070017 | 64 | 23 | 3.0 | 9.0 | 0.00 | 0.00 | 0.00 | 69 | 1012.2 |
| 20260507065517 | 64 | 23 | 3.0 | 9.0 | 0.00 | 0.00 | 0.00 | 70 | 1012.1 |
| 20260507065017 | 63 | 0 | 3.0 | 9.0 | 0.00 | 0.00 | 0.00 | 70 | 1012.1 |
| 20260507064516 | 63 | 23 | 1.0 | 4.0 | 0.00 | 0.00 | 0.00 | 72 | 1012.1 |
| 20260507064037 | 63 | 0 | 2.0 | 7.0 | 0.00 | 0.00 | 0.00 | 72 | 1012.2 |
| 20260507063516 | 63 | 23 | 2.0 | 5.0 | 0.00 | 0.00 | 0.00 | 73 | 1012.3 |
| 20260507063017 | 62 | 23 | 2.0 | 5.0 | 0.00 | 0.00 | 0.00 | 73 | 1012.2 |
| 20260507062517 | 62 | 23 | 3.0 | 8.0 | 0.00 | 0.00 | 0.00 | 74 | 1012.2 |
| 20260507062017 | 61 | 23 | 2.0 | 8.0 | 0.00 | 0.00 | 0.00 | 75 | 1012.2 |
| 20260507061536 | 61 | 0 | 3.0 | 5.0 | 0.00 | 0.00 | 0.00 | 75 | 1012.2 |
| 20260507061017 | 61 | 0 | 3.0 | 5.0 | 0.00 | 0.00 | 0.00 | 76 | 1012.1 |
| 20260507060516 | 60 | 338 | 3.0 | 6.0 | 0.00 | 0.00 | 0.00 | 77 | 1012.1 |
| 20260507060017 | 60 | 338 | 3.0 | 5.0 | 0.00 | 0.00 | 0.00 | 78 | 1012.1 |
| 20260507055517 | 60 | 315 | 2.0 | 4.0 | 0.00 | 0.00 | 0.00 | 78 | 1012.2 |
| 20260507055016 | 60 | 293 | 1.0 | 3.0 | 0.00 | 0.00 | 0.00 | 79 | 1012.2 |
| 20260507054516 | 60 | 293 | 2.0 | 3.0 | 0.00 | 0.00 | 0.00 | 79 | 1012.2 |
| 20260507054016 | 60 | 315 | 1.0 | 2.0 | 0.00 | 0.00 | 0.00 | 79 | 1012.3 |
| 20260507053517 | 60 | 315 | 1.0 | 3.0 | 0.00 | 0.00 | 0.00 | 79 | 1012.2 |
| 20260507053016 | 60 | 315 | 1.0 | 3.0 | 0.00 | 0.00 | 0.00 | 79 | 1012.2 |
| 20260507052537 | 60 | 315 | 1.0 | 3.0 | 0.00 | 0.00 | 0.00 | 79 | 1012.1 |
| 20260507052017 | 60 | 315 | 1.0 | 3.0 | 0.00 | 0.00 | 0.00 | 78 | 1012.1 |
| 20260507051517 | 60 | 315 | 2.0 | 4.0 | 0.00 | 0.00 | 0.00 | 78 | 1011.9 |
| 20260507051037 | 60 | 315 | 2.0 | 3.0 | 0.00 | 0.00 | 0.00 | 78 | 1011.9 |
| 20260507050536 | 60 | 338 | 2.0 | 4.0 | 0.00 | 0.00 | 0.00 | 78 | 1011.8 |
| 20260507050016 | 59 | 315 | 2.0 | 4.0 | 0.00 | 0.00 | 0.00 | 78 | 1011.8 |
| 20260507045516 | 60 | 338 | 2.0 | 4.0 | 0.00 | 0.00 | 0.00 | 78 | 1011.7 |
| 20260507045036 | 60 | 338 | 2.0 | 4.0 | 0.00 | 0.00 | 0.00 | 77 | 1011.8 |
| 20260507044516 | 60 | 338 | 3.0 | 6.0 | 0.00 | 0.00 | 0.00 | 77 | 1011.7 |
| 20260507044016 | 60 | 338 | 2.0 | 5.0 | 0.00 | 0.00 | 0.00 | 77 | 1011.6 |
| 20260507043516 | 60 | 338 | 2.0 | 5.0 | 0.00 | 0.00 | 0.00 | 78 | 1011.7 |
| 20260507043056 | 60 | 338 | 2.0 | 4.0 | 0.00 | 0.00 | 0.00 | 78 | 1011.8 |
| 20260507042516 | 60 | 338 | 1.0 | 3.0 | 0.00 | 0.00 | 0.00 | 77 | 1011.7 |
| 20260507042016 | 60 | 338 | 2.0 | 4.0 | 0.00 | 0.00 | 0.00 | 77 | 1011.7 |
| 20260507041516 | 60 | 338 | 2.0 | 4.0 | 0.00 | 0.00 | 0.00 | 77 | 1011.7 |
| 20260507041016 | 60 | 338 | 2.0 | 3.0 | 0.00 | 0.00 | 0.00 | 77 | 1011.7 |
| 20260507040518 | 60 | 338 | 2.0 | 4.0 | 0.00 | 0.00 | 0.00 | 77 | 1011.7 |
| 20260507040017 | 60 | 338 | 2.0 | 4.0 | 0.00 | 0.00 | 0.00 | 77 | 1011.6 |
| 20260507035516 | 60 | 338 | 2.0 | 4.0 | 0.00 | 0.00 | 0.00 | 77 | 1011.6 |
| 20260507035037 | 60 | 338 | 2.0 | 5.0 | 0.00 | 0.00 | 0.00 | 76 | 1011.5 |
| 20260507034516 | 60 | 0 | 3.0 | 5.0 | 0.00 | 0.00 | 0.00 | 76 | 1011.5 |
| 20260507034036 | 60 | 0 | 2.0 | 5.0 | 0.00 | 0.00 | 0.00 | 76 | 1011.5 |
| 20260507033516 | 60 | 23 | 2.0 | 5.0 | 0.00 | 0.00 | 0.00 | 76 | 1011.5 |
| 20260507033016 | 60 | 23 | 2.0 | 7.0 | 0.00 | 0.00 | 0.00 | 76 | 1011.6 |
| 20260507032516 | 60 | 23 | 2.0 | 6.0 | 0.00 | 0.00 | 0.00 | 76 | 1011.7 |
| 20260507032016 | 60 | 23 | 1.0 | 5.0 | 0.00 | 0.00 | 0.00 | 76 | 1011.6 |
| 20260507031516 | 60 | 23 | 2.0 | 5.0 | 0.00 | 0.00 | 0.00 | 76 | 1011.6 |
| 20260507031016 | 60 | 23 | 3.0 | 6.0 | 0.00 | 0.00 | 0.00 | 76 | 1011.7 |
| 20260507030516 | 60 | 0 | 3.0 | 7.0 | 0.00 | 0.00 | 0.00 | 77 | 1011.7 |
| 20260507030016 | 60 | 0 | 3.0 | 6.0 | 0.00 | 0.00 | 0.00 | 77 | 1011.8 |
| 20260507025516 | 60 | 0 | 2.0 | 4.0 | 0.00 | 0.00 | 0.00 | 77 | 1011.8 |
| 20260507025016 | 60 | 0 | 2.0 | 5.0 | 0.00 | 0.00 | 0.00 | 77 | 1011.8 |
| 20260507024516 | 60 | 0 | 2.0 | 4.0 | 0.00 | 0.00 | 0.00 | 77 | 1011.8 |
| 20260507024016 | 61 | 0 | 1.0 | 4.0 | 0.00 | 0.00 | 0.00 | 77 | 1011.8 |
| 20260507023516 | 61 | 0.0 | 1.0 | 0.00 | 0.00 | 0.00 | 77 | 1011.8 | |
| 20260507023016 | 61 | 0.0 | 1.0 | 0.00 | 0.00 | 0.00 | 77 | 1011.9 | |
| 20260507022516 | 61 | 0.0 | 1.0 | 0.00 | 0.00 | 0.00 | 77 | 1012.0 | |
| 20260507022016 | 61 | 315 | 1.0 | 2.0 | 0.00 | 0.00 | 0.00 | 77 | 1012.0 |
| 20260507021517 | 61 | 0.0 | 2.0 | 0.00 | 0.00 | 0.00 | 76 | 1012.0 | |
| 20260507021036 | 61 | 293 | 1.0 | 2.0 | 0.00 | 0.00 | 0.00 | 76 | 1012.2 |
| 20260507020516 | 61 | 315 | 1.0 | 2.0 | 0.00 | 0.00 | 0.00 | 76 | 1012.2 |
| 20260507020016 | 61 | 315 | 2.0 | 3.0 | 0.00 | 0.00 | 0.00 | 76 | 1012.1 |
| 20260507015516 | 61 | 293 | 2.0 | 3.0 | 0.00 | 0.00 | 0.00 | 76 | 1012.2 |
| 20260507015016 | 61 | 270 | 2.0 | 4.0 | 0.00 | 0.00 | 0.00 | 76 | 1012.3 |
| 20260507014516 | 61 | 315 | 1.0 | 3.0 | 0.00 | 0.00 | 0.00 | 76 | 1012.3 |
| 20260507014016 | 61 | 315 | 1.0 | 3.0 | 0.00 | 0.00 | 0.00 | 76 | 1012.2 |
| 20260507013516 | 61 | 338 | 2.0 | 4.0 | 0.00 | 0.00 | 0.00 | 76 | 1012.0 |
| 20260507013016 | 61 | 338 | 2.0 | 6.0 | 0.00 | 0.00 | 0.00 | 76 | 1012.0 |
| 20260507012516 | 61 | 338 | 2.0 | 4.0 | 0.00 | 0.00 | 0.00 | 76 | 1012.1 |
| 20260507012016 | 61 | 338 | 2.0 | 5.0 | 0.00 | 0.00 | 0.00 | 77 | 1012.2 |
| 20260507011516 | 61 | 338 | 2.0 | 4.0 | 0.00 | 0.00 | 0.00 | 77 | 1012.2 |
| 20260507011036 | 61 | 338 | 1.0 | 4.0 | 0.00 | 0.00 | 0.00 | 77 | 1012.2 |
| 20260507010536 | 61 | 338 | 2.0 | 5.0 | 0.00 | 0.00 | 0.00 | 77 | 1012.2 |
| 20260507010016 | 61 | 0 | 3.0 | 6.0 | 0.00 | 0.00 | 0.00 | 77 | 1012.2 |
| 20260507005516 | 61 | 0 | 3.0 | 5.0 | 0.00 | 0.00 | 0.00 | 77 | 1012.2 |
| 20260507005016 | 61 | 338 | 2.0 | 4.0 | 0.00 | 0.00 | 0.00 | 77 | 1012.2 |
| 20260507004516 | 62 | 338 | 2.0 | 6.0 | 0.00 | 0.00 | 0.00 | 77 | 1012.3 |
| 20260507004016 | 62 | 338 | 2.0 | 4.0 | 0.00 | 0.00 | 0.00 | 77 | 1012.4 |
| 20260507003516 | 61 | 315 | 1.0 | 3.0 | 0.00 | 0.00 | 0.00 | 78 | 1012.5 |
| 20260507003016 | 61 | 0 | 2.0 | 8.0 | 0.00 | 0.00 | 0.00 | 78 | 1012.4 |
| 20260507002516 | 61 | 0 | 5.0 | 8.0 | 0.00 | 0.00 | 0.00 | 78 | 1012.3 |
| 20260507002016 | 62 | 0 | 3.0 | 5.0 | 0.00 | 0.00 | 0.00 | 78 | 1012.4 |
| 20260507001516 | 62 | 0 | 3.0 | 7.0 | 0.00 | 0.00 | 0.00 | 78 | 1012.5 |
| 20260507001016 | 62 | 0 | 3.0 | 7.0 | 0.00 | 0.00 | 0.00 | 78 | 1012.5 |
| 20260507000516 | 62 | 0 | 3.0 | 8.0 | 0.00 | 0.00 | 0.00 | 78 | 1012.6 |
| 20260507000016 | 62 | 338 | 3.0 | 6.0 | 0.00 | 0.00 | 0.00 | 78 | 1012.7 |
| 20260506235516 | 62 | 338 | 3.0 | 7.0 | 0.00 | 0.00 | 0.00 | 78 | 1012.7 |
| 20260506235016 | 62 | 0 | 3.0 | 7.0 | 0.00 | 0.00 | 0.00 | 78 | 1012.8 |
| 20260506234516 | 62 | 0 | 3.0 | 7.0 | 0.00 | 0.00 | 0.00 | 78 | 1012.8 |
| 20260506234016 | 62 | 0 | 3.0 | 5.0 | 0.00 | 0.00 | 0.00 | 79 | 1012.8 |
| 20260506233536 | 62 | 0 | 3.0 | 7.0 | 0.00 | 0.00 | 0.00 | 79 | 1012.8 |
| 20260506233016 | 62 | 0 | 3.0 | 9.0 | 0.00 | 0.00 | 0.00 | 79 | 1012.8 |
| 20260506232516 | 62 | 0 | 3.0 | 9.0 | 0.00 | 0.00 | 0.00 | 79 | 1012.8 |
| 20260506232036 | 62 | 0 | 3.0 | 6.0 | 0.00 | 0.00 | 0.00 | 79 | 1012.8 |
| 20260506231516 | 62 | 0 | 3.0 | 8.0 | 0.00 | 0.00 | 0.00 | 79 | 1012.8 |
| 20260506231016 | 62 | 0 | 3.0 | 6.0 | 0.00 | 0.00 | 0.00 | 79 | 1012.8 |
| 20260506230616 | 62 | 0 | 3.0 | 5.0 | 0.00 | 0.00 | 0.00 | 79 | 1012.8 |
| 20260506230016 | 62 | 0 | 3.0 | 6.0 | 0.00 | 0.00 | 0.00 | 79 | 1012.9 |
| 20260506225516 | 62 | 0 | 4.0 | 8.0 | 0.00 | 0.00 | 0.00 | 79 | 1012.9 |
| 20260506225016 | 62 | 0 | 4.0 | 8.0 | 0.00 | 0.00 | 0.00 | 79 | 1012.9 |
| 20260506224516 | 62 | 0 | 4.0 | 8.0 | 0.00 | 0.00 | 0.00 | 79 | 1012.9 |
| 20260506224016 | 62 | 0 | 4.0 | 8.0 | 0.00 | 0.00 | 0.00 | 79 | 1012.8 |
| 20260506223516 | 62 | 23 | 4.0 | 8.0 | 0.00 | 0.00 | 0.00 | 79 | 1012.9 |
| 20260506223016 | 62 | 23 | 4.0 | 8.0 | 0.00 | 0.00 | 0.00 | 79 | 1012.8 |
| 20260506222516 | 62 | 0 | 3.0 | 6.0 | 0.00 | 0.00 | 0.00 | 80 | 1012.8 |
| 20260506222016 | 62 | 23 | 3.0 | 8.0 | 0.00 | 0.00 | 0.00 | 80 | 1012.8 |
| 20260506221516 | 62 | 68 | 2.0 | 5.0 | 0.00 | 0.00 | 0.00 | 80 | 1012.9 |
| 20260506221016 | 62 | 68 | 2.0 | 5.0 | 0.00 | 0.00 | 0.00 | 80 | 1013.0 |
| 20260506220515 | 62 | 45 | 2.0 | 6.0 | 0.00 | 0.00 | 0.00 | 80 | 1013.0 |
| 20260506220016 | 63 | 68 | 1.0 | 5.0 | 0.00 | 0.00 | 0.00 | 80 | 1013.0 |
| 20260506215517 | 63 | 23 | 1.0 | 4.0 | 0.00 | 0.00 | 0.00 | 79 | 1013.1 |
| 20260506215017 | 63 | 68 | 1.0 | 5.0 | 0.00 | 0.00 | 0.00 | 79 | 1013.0 |
| 20260506214517 | 63 | 45 | 1.0 | 3.0 | 0.00 | 0.00 | 0.00 | 79 | 1013.1 |
| 20260506214037 | 63 | 45 | 1.0 | 3.0 | 0.00 | 0.00 | 0.00 | 79 | 1013.2 |
| 20260506213516 | 63 | 45 | 1.0 | 3.0 | 0.00 | 0.00 | 0.00 | 79 | 1013.4 |
| 20260506213016 | 63 | 0.0 | 3.0 | 0.00 | 0.00 | 0.00 | 79 | 1013.4 | |
| 20260506212517 | 63 | 0.0 | 2.0 | 0.00 | 0.00 | 0.00 | 79 | 1013.4 | |
| 20260506212036 | 63 | 0.0 | 3.0 | 0.00 | 0.00 | 0.00 | 79 | 1013.5 | |
| 20260506211517 | 63 | 0.0 | 3.0 | 0.00 | 0.00 | 0.00 | 79 | 1013.4 | |
| 20260506211017 | 63 | 45 | 1.0 | 4.0 | 0.00 | 0.00 | 0.00 | 79 | 1013.3 |
| 20260506210516 | 63 | 45 | 2.0 | 5.0 | 0.00 | 0.00 | 0.00 | 79 | 1013.3 |
| 20260506210017 | 63 | 45 | 1.0 | 4.0 | 0.00 | 0.00 | 0.00 | 79 | 1013.2 |
| 20260506205536 | 63 | 45 | 2.0 | 4.0 | 0.00 | 0.00 | 0.00 | 79 | 1013.1 |
| 20260506205017 | 63 | 45 | 2.0 | 5.0 | 0.00 | 0.00 | 0.00 | 79 | 1013.1 |
| 20260506204516 | 63 | 68 | 2.0 | 5.0 | 0.00 | 0.00 | 0.00 | 79 | 1013.2 |
| 20260506204016 | 63 | 68 | 1.0 | 4.0 | 0.00 | 0.00 | 0.00 | 79 | 1013.2 |
| 20260506203516 | 63 | 68 | 1.0 | 3.0 | 0.00 | 0.00 | 0.00 | 79 | 1013.1 |
| 20260506203016 | 63 | 68 | 1.0 | 4.0 | 0.00 | 0.00 | 0.00 | 79 | 1013.0 |
| 20260506202517 | 63 | 68 | 1.0 | 3.0 | 0.00 | 0.00 | 0.00 | 79 | 1012.9 |
| 20260506202017 | 63 | 68 | 2.0 | 4.0 | 0.00 | 0.00 | 0.00 | 79 | 1012.9 |
| 20260506201516 | 63 | 68 | 2.0 | 4.0 | 0.00 | 0.00 | 0.00 | 78 | 1012.8 |
| 20260506201017 | 63 | 90 | 2.0 | 5.0 | 0.00 | 0.00 | 0.00 | 78 | 1012.8 |
| 20260506200537 | 63 | 90 | 1.0 | 4.0 | 0.00 | 0.00 | 0.00 | 78 | 1012.8 |
| 20260506200037 | 63 | 90 | 2.0 | 5.0 | 0.00 | 0.00 | 0.00 | 78 | 1012.6 |
| 20260506195517 | 63 | 90 | 1.0 | 3.0 | 0.00 | 0.00 | 0.00 | 78 | 1012.6 |
| 20260506195016 | 63 | 90 | 2.0 | 4.0 | 0.00 | 0.00 | 0.00 | 77 | 1012.4 |
| 20260506194517 | 63 | 90 | 3.0 | 5.0 | 0.00 | 0.00 | 0.00 | 77 | 1012.3 |
| 20260506194016 | 63 | 68 | 2.0 | 4.0 | 0.00 | 0.00 | 0.00 | 77 | 1012.4 |
| 20260506193516 | 63 | 45 | 3.0 | 7.0 | 0.00 | 0.00 | 0.00 | 77 | 1012.3 |
| 20260506193016 | 63 | 90 | 2.0 | 5.0 | 0.00 | 0.00 | 0.00 | 77 | 1012.2 |
| 20260506192537 | 63 | 68 | 3.0 | 7.0 | 0.00 | 0.00 | 0.00 | 77 | 1012.2 |
| 20260506192016 | 63 | 68 | 5.0 | 10.0 | 0.00 | 0.00 | 0.00 | 77 | 1012.1 |
| 20260506191516 | 63 | 90 | 7.0 | 11.0 | 0.00 | 0.00 | 0.00 | 77 | 1012.0 |
| 20260506191016 | 63 | 68 | 6.0 | 11.0 | 0.00 | 0.00 | 0.00 | 77 | 1012.0 |
| 20260506190516 | 64 | 68 | 7.0 | 13.0 | 0.00 | 0.00 | 0.00 | 77 | 1012.0 |
| 20260506190017 | 64 | 68 | 11.0 | 16.0 | 0.00 | 0.00 | 0.00 | 77 | 1012.0 |
| 20260506185536 | 64 | 68 | 7.0 | 14.0 | 0.00 | 0.00 | 0.00 | 77 | 1012.0 |
| 20260506185016 | 64 | 68 | 8.0 | 13.0 | 0.00 | 0.00 | 0.00 | 77 | 1011.9 |
| 20260506184536 | 64 | 68 | 9.0 | 13.0 | 0.00 | 0.00 | 0.00 | 77 | 1011.9 |
| 20260506184016 | 64 | 68 | 5.0 | 14.0 | 0.00 | 0.00 | 0.00 | 77 | 1011.8 |
| 20260506183516 | 64 | 68 | 7.0 | 15.0 | 0.00 | 0.00 | 0.00 | 76 | 1011.8 |
| 20260506183016 | 64 | 68 | 8.0 | 15.0 | 0.00 | 0.00 | 0.00 | 76 | 1011.7 |
| 20260506182516 | 64 | 90 | 9.0 | 16.0 | 0.00 | 0.00 | 0.00 | 76 | 1011.7 |
| 20260506182016 | 64 | 68 | 13.0 | 18.0 | 0.00 | 0.00 | 0.00 | 75 | 1011.6 |
| 20260506181516 | 64 | 90 | 10.0 | 16.0 | 0.00 | 0.00 | 0.00 | 74 | 1011.6 |
| 20260506181036 | 64 | 68 | 12.0 | 18.0 | 0.00 | 0.00 | 0.00 | 74 | 1011.5 |
| 20260506180516 | 64 | 68 | 12.0 | 18.0 | 0.00 | 0.00 | 0.00 | 74 | 1011.6 |
| 20260506180016 | 64 | 90 | 8.0 | 15.0 | 0.00 | 0.00 | 0.00 | 74 | 1011.6 |
| 20260506175516 | 64 | 68 | 9.0 | 14.0 | 0.00 | 0.00 | 0.00 | 76 | 1011.7 |
| 20260506175016 | 64 | 68 | 8.0 | 12.0 | 0.00 | 0.00 | 0.00 | 76 | 1011.6 |
| 20260506174516 | 64 | 68 | 11.0 | 16.0 | 0.00 | 0.00 | 0.00 | 76 | 1011.6 |
| 20260506174016 | 65 | 68 | 11.0 | 16.0 | 0.00 | 0.00 | 0.00 | 76 | 1011.6 |
| 20260506173517 | 65 | 68 | 10.0 | 16.0 | 0.00 | 0.00 | 0.00 | 75 | 1011.7 |
| 20260506173056 | 65 | 68 | 11.0 | 18.0 | 0.00 | 0.00 | 0.00 | 75 | 1011.7 |
| 20260506172516 | 65 | 68 | 13.0 | 19.0 | 0.00 | 0.00 | 0.00 | 75 | 1011.6 |
| 20260506172016 | 65 | 90 | 12.0 | 19.0 | 0.00 | 0.00 | 0.00 | 75 | 1011.5 |
| 20260506171516 | 65 | 68 | 12.0 | 19.0 | 0.00 | 0.00 | 0.00 | 76 | 1011.5 |
| 20260506171017 | 65 | 68 | 15.0 | 22.0 | 0.00 | 0.00 | 0.00 | 75 | 1011.5 |
| 20260506170516 | 65 | 68 | 14.0 | 22.0 | 0.00 | 0.00 | 0.00 | 75 | 1011.4 |
| 20260506170016 | 65 | 68 | 11.0 | 19.0 | 0.00 | 0.00 | 0.00 | 75 | 1011.4 |
| 20260506165516 | 65 | 68 | 11.0 | 17.0 | 0.00 | 0.00 | 0.00 | 74 | 1011.4 |
| 20260506165016 | 65 | 68 | 12.0 | 21.0 | 0.00 | 0.00 | 0.00 | 75 | 1011.5 |
| 20260506164516 | 65 | 90 | 15.0 | 23.0 | 0.00 | 0.00 | 0.00 | 75 | 1011.3 |
| 20260506164016 | 65 | 68 | 12.0 | 20.0 | 0.00 | 0.00 | 0.00 | 74 | 1011.4 |
| 20260506163516 | 65 | 90 | 13.0 | 21.0 | 0.00 | 0.00 | 0.00 | 74 | 1011.4 |
| 20260506163036 | 66 | 68 | 17.0 | 23.0 | 0.00 | 0.00 | 0.00 | 73 | 1011.4 |
| 20260506162536 | 66 | 68 | 15.0 | 20.0 | 0.00 | 0.00 | 0.00 | 73 | 1011.3 |
| 20260506162016 | 66 | 90 | 16.0 | 23.0 | 0.00 | 0.00 | 0.00 | 73 | 1011.4 |
| 20260506161516 | 66 | 68 | 15.0 | 21.0 | 0.00 | 0.00 | 0.00 | 73 | 1011.4 |
| 20260506161036 | 66 | 68 | 15.0 | 24.0 | 0.00 | 0.00 | 0.00 | 71 | 1011.4 |
| 20260506160516 | 66 | 90 | 18.0 | 24.0 | 0.00 | 0.00 | 0.00 | 71 | 1011.2 |
| 20260506160016 | 67 | 90 | 15.0 | 21.0 | 0.00 | 0.00 | 0.00 | 70 | 1011.2 |
| 20260506155516 | 66 | 68 | 13.0 | 20.0 | 0.00 | 0.00 | 0.00 | 71 | 1011.1 |
| 20260506155016 | 67 | 68 | 15.0 | 24.0 | 0.00 | 0.00 | 0.00 | 70 | 1011.1 |
| 20260506154516 | 67 | 68 | 15.0 | 22.0 | 0.00 | 0.00 | 0.00 | 69 | 1011.2 |
| 20260506154016 | 67 | 90 | 13.0 | 20.0 | 0.00 | 0.00 | 0.00 | 70 | 1011.2 |
| 20260506153516 | 67 | 90 | 16.0 | 23.0 | 0.00 | 0.00 | 0.00 | 69 | 1011.2 |
| 20260506153016 | 67 | 90 | 16.0 | 22.0 | 0.00 | 0.00 | 0.00 | 69 | 1011.2 |
| 20260506152517 | 67 | 90 | 15.0 | 25.0 | 0.00 | 0.00 | 0.00 | 69 | 1011.3 |
| 20260506152016 | 67 | 90 | 14.0 | 21.0 | 0.00 | 0.00 | 0.00 | 69 | 1011.3 |
| 20260506151516 | 68 | 68 | 13.0 | 24.0 | 0.00 | 0.00 | 0.00 | 67 | 1011.3 |
| 20260506151016 | 68 | 68 | 14.0 | 22.0 | 0.00 | 0.00 | 0.00 | 68 | 1011.3 |
| 20260506150516 | 67 | 90 | 15.0 | 21.0 | 0.00 | 0.00 | 0.00 | 69 | 1011.3 |
| 20260506150016 | 67 | 90 | 17.0 | 25.0 | 0.00 | 0.00 | 0.00 | 69 | 1011.3 |
| 20260506145516 | 67 | 90 | 18.0 | 28.0 | 0.00 | 0.00 | 0.00 | 69 | 1011.4 |
| 20260506145016 | 67 | 68 | 15.0 | 24.0 | 0.00 | 0.00 | 0.00 | 68 | 1011.5 |
| 20260506144516 | 67 | 68 | 15.0 | 26.0 | 0.00 | 0.00 | 0.00 | 69 | 1011.5 |
| 20260506144016 | 67 | 68 | 17.0 | 24.0 | 0.00 | 0.00 | 0.00 | 69 | 1011.5 |
| 20260506143516 | 67 | 68 | 15.0 | 25.0 | 0.00 | 0.00 | 0.00 | 68 | 1011.7 |
| 20260506143016 | 67 | 68 | 15.0 | 24.0 | 0.00 | 0.00 | 0.00 | 69 | 1011.7 |
| 20260506142516 | 67 | 68 | 14.0 | 21.0 | 0.00 | 0.00 | 0.00 | 69 | 1011.7 |
| 20260506142016 | 67 | 68 | 15.0 | 25.0 | 0.00 | 0.00 | 0.00 | 69 | 1011.8 |
| 20260506141516 | 67 | 68 | 15.0 | 27.0 | 0.00 | 0.00 | 0.00 | 69 | 1011.8 |
| 20260506141016 | 67 | 68 | 17.0 | 25.0 | 0.00 | 0.00 | 0.00 | 70 | 1011.9 |
| 20260506140516 | 67 | 68 | 17.0 | 27.0 | 0.00 | 0.00 | 0.00 | 69 | 1011.8 |
| 20260506140016 | 67 | 90 | 16.0 | 24.0 | 0.00 | 0.00 | 0.00 | 69 | 1011.8 |
| 20260506135516 | 67 | 45 | 16.0 | 25.0 | 0.00 | 0.00 | 0.00 | 70 | 1011.9 |
| 20260506135016 | 67 | 68 | 17.0 | 25.0 | 0.00 | 0.00 | 0.00 | 71 | 1011.8 |
| 20260506134516 | 67 | 68 | 16.0 | 23.0 | 0.00 | 0.00 | 0.00 | 69 | 1011.9 |
| 20260506134016 | 67 | 68 | 17.0 | 29.0 | 0.00 | 0.00 | 0.00 | 70 | 1011.8 |
| 20260506133516 | 67 | 68 | 18.0 | 29.0 | 0.00 | 0.00 | 0.00 | 70 | 1011.8 |